TimeCST,TemperatureF,Dew PointF,Humidity,Sea Level PressureIn,VisibilityMPH,Wind Direction,Wind SpeedMPH,Gust SpeedMPH,PrecipitationIn,Events,Conditions,WindDirDegrees,DateUTC
12:15 AM,46.4,42.8,87,29.64,10.0,ENE,10.4,-,0.07,,Overcast,70,2013-02-26 06:15:00
12:35 AM,44.6,42.8,93,29.61,10.0,ENE,12.7,-,0.16,,Overcast,70,2013-02-26 06:35:00
12:55 AM,44.6,42.8,93,29.63,8.0,East,9.2,-,0.23,,Overcast,100,2013-02-26 06:55:00
1:15 AM,46.4,42.8,87,29.60,8.0,East,13.8,19.6,0.06,,Overcast,90,2013-02-26 07:15:00
1:35 AM,46.4,42.8,87,29.62,5.0,East,8.1,-,0.14,,Overcast,80,2013-02-26 07:35:00
1:55 AM,46.4,42.8,87,29.59,8.0,ENE,15.0,18.4,0.20,,Overcast,70,2013-02-26 07:55:00
2:15 AM,46.4,42.8,87,29.59,7.0,East,13.8,20.7,0.10,,Overcast,100,2013-02-26 08:15:00
2:35 AM,46.4,42.8,87,29.60,7.0,East,10.4,-,0.11,,Overcast,80,2013-02-26 08:35:00
2:55 AM,46.4,42.8,87,29.59,10.0,East,11.5,18.4,0.12,,Overcast,100,2013-02-26 08:55:00
3:15 AM,46.4,42.8,87,29.58,10.0,East,11.5,17.3,N/A,,Overcast,100,2013-02-26 09:15:00
3:35 AM,44.6,42.8,93,29.56,10.0,East,11.5,-,N/A,,Overcast,80,2013-02-26 09:35:00
3:55 AM,44.6,42.8,93,29.56,10.0,East,6.9,17.3,N/A,,Overcast,90,2013-02-26 09:55:00
4:35 AM,44.6,41.0,87,29.55,10.0,East,10.4,-,N/A,,Overcast,100,2013-02-26 10:35:00
4:55 AM,44.6,41.0,87,29.54,10.0,ENE,6.9,-,N/A,,Overcast,70,2013-02-26 10:55:00
5:15 AM,44.6,41.0,87,29.55,10.0,ENE,9.2,-,N/A,,Overcast,70,2013-02-26 11:15:00
5:35 AM,44.6,41.0,87,29.54,10.0,ENE,6.9,-,N/A,,Overcast,60,2013-02-26 11:35:00
5:55 AM,44.6,41.0,87,29.53,10.0,NE,9.2,-,N/A,,Overcast,40,2013-02-26 11:55:00
6:15 AM,44.6,41.0,87,29.54,10.0,ENE,4.6,-,N/A,,Overcast,60,2013-02-26 12:15:00
6:35 AM,44.6,42.8,93,29.54,10.0,ESE,6.9,-,N/A,,Overcast,120,2013-02-26 12:35:00
6:55 AM,46.4,41.0,81,29.53,10.0,ENE,6.9,-,N/A,,Overcast,70,2013-02-26 12:55:00
7:15 AM,46.4,41.0,81,29.54,10.0,East,5.8,-,N/A,,Overcast,90,2013-02-26 13:15:00
7:35 AM,46.4,42.8,87,29.54,10.0,NNE,4.6,-,N/A,,Overcast,30,2013-02-26 13:35:00
7:55 AM,46.4,42.8,87,29.54,10.0,ENE,5.8,-,N/A,,Overcast,60,2013-02-26 13:55:00
8:15 AM,46.4,42.8,87,29.54,10.0,East,4.6,-,N/A,,Overcast,90,2013-02-26 14:15:00
8:35 AM,46.4,42.8,87,29.55,10.0,Calm,Calm,-,0.01,,Overcast,0,2013-02-26 14:35:00
8:55 AM,46.4,42.8,87,29.56,8.0,South,3.5,-,0.01,,Overcast,180,2013-02-26 14:55:00
9:15 AM,46.4,42.8,87,29.56,1.8,Calm,Calm,-,N/A,,Overcast,0,2013-02-26 15:15:00
9:35 AM,46.4,44.6,93,29.55,8.0,SSE,4.6,-,N/A,,Overcast,150,2013-02-26 15:35:00
9:55 AM,46.4,44.6,93,29.56,10.0,Calm,Calm,-,N/A,,Overcast,0,2013-02-26 15:55:00
10:15 AM,46.4,44.6,93,29.58,7.0,West,10.4,-,0.01,,Overcast,270,2013-02-26 16:15:00
10:35 AM,46.4,44.6,93,29.58,10.0,WSW,8.1,-,0.01,,Overcast,240,2013-02-26 16:35:00
10:55 AM,48.2,44.6,87,29.59,10.0,WSW,8.1,-,0.01,,Overcast,240,2013-02-26 16:55:00
11:15 AM,50.0,44.6,82,29.60,10.0,WSW,16.1,20.7,N/A,,Overcast,240,2013-02-26 17:15:00
11:35 AM,51.8,41.0,67,29.60,10.0,SW,9.2,19.6,N/A,,Mostly Cloudy,230,2013-02-26 17:35:00
11:55 AM,51.8,37.4,58,29.60,10.0,WSW,17.3,28.8,N/A,,Overcast,240,2013-02-26 17:55:00
12:15 PM,50.0,37.4,62,29.61,10.0,WSW,13.8,21.9,N/A,,Overcast,240,2013-02-26 18:15:00
12:35 PM,50.0,37.4,62,29.61,10.0,WSW,13.8,21.9,N/A,,Overcast,250,2013-02-26 18:35:00
12:55 PM,48.2,37.4,66,29.61,10.0,WSW,15.0,21.9,N/A,,Overcast,250,2013-02-26 18:55:00
1:15 PM,50.0,35.6,58,29.61,10.0,WSW,15.0,27.6,N/A,,Overcast,240,2013-02-26 19:15:00
1:35 PM,48.2,35.6,62,29.62,10.0,SW,16.1,25.3,N/A,,Overcast,230,2013-02-26 19:35:00
1:55 PM,48.2,33.8,58,29.62,10.0,WSW,17.3,23.0,N/A,,Overcast,240,2013-02-26 19:55:00
2:15 PM,48.2,35.6,62,29.62,10.0,WSW,13.8,21.9,N/A,,Overcast,240,2013-02-26 20:15:00
2:35 PM,48.2,33.8,58,29.63,10.0,WSW,12.7,23.0,N/A,,Overcast,240,2013-02-26 20:35:00
2:55 PM,46.4,35.6,66,29.65,10.0,WSW,15.0,20.7,N/A,,Overcast,250,2013-02-26 20:55:00
3:15 PM,46.4,33.8,62,29.65,10.0,SW,13.8,20.7,N/A,,Overcast,230,2013-02-26 21:15:00
3:35 PM,46.4,33.8,62,29.66,10.0,WSW,9.2,19.6,N/A,,Overcast,240,2013-02-26 21:35:00
3:55 PM,46.4,33.8,62,29.67,10.0,WSW,11.5,17.3,N/A,,Overcast,240,2013-02-26 21:55:00
4:15 PM,46.4,33.8,62,29.68,10.0,SSW,6.9,-,N/A,,Overcast,210,2013-02-26 22:15:00
4:35 PM,46.4,33.8,62,29.68,10.0,SW,13.8,18.4,N/A,,Overcast,230,2013-02-26 22:35:00
4:55 PM,46.4,33.8,62,29.69,10.0,WSW,11.5,18.4,N/A,,Overcast,240,2013-02-26 22:55:00
5:15 PM,46.4,33.8,62,29.69,10.0,WSW,13.8,-,N/A,,Overcast,240,2013-02-26 23:15:00
5:35 PM,44.6,33.8,66,29.70,10.0,WSW,12.7,17.3,N/A,,Overcast,240,2013-02-26 23:35:00
5:55 PM,44.6,33.8,66,29.71,10.0,WSW,11.5,18.4,N/A,,Overcast,240,2013-02-26 23:55:00
6:15 PM,44.6,33.8,66,29.72,10.0,WSW,10.4,-,N/A,,Overcast,240,2013-02-27 00:15:00
6:35 PM,44.6,33.8,66,29.73,10.0,SW,15.0,21.9,N/A,,Overcast,230,2013-02-27 00:35:00
6:55 PM,44.6,33.8,66,29.74,10.0,WSW,13.8,19.6,N/A,,Overcast,240,2013-02-27 00:55:00
7:15 PM,44.6,33.8,66,29.75,10.0,WSW,11.5,-,N/A,,Overcast,250,2013-02-27 01:15:00
7:35 PM,44.6,33.8,66,29.75,10.0,West,17.3,26.5,N/A,,Overcast,260,2013-02-27 01:35:00
7:55 PM,44.6,33.8,66,29.77,10.0,West,17.3,28.8,N/A,,Overcast,260,2013-02-27 01:55:00
8:15 PM,44.6,32.0,61,29.78,10.0,West,20.7,26.5,N/A,,Overcast,260,2013-02-27 02:15:00
8:35 PM,44.6,30.2,57,29.79,10.0,WSW,18.4,-,N/A,,Overcast,250,2013-02-27 02:35:00
8:55 PM,44.6,30.2,57,29.80,10.0,WSW,12.7,20.7,N/A,,Overcast,250,2013-02-27 02:55:00
9:15 PM,44.6,30.2,57,29.80,10.0,WSW,11.5,-,N/A,,Overcast,250,2013-02-27 03:15:00
9:35 PM,44.6,30.2,57,29.80,10.0,WSW,8.1,-,N/A,,Overcast,240,2013-02-27 03:35:00
9:55 PM,44.6,30.2,57,29.81,10.0,WSW,9.2,-,N/A,,Overcast,240,2013-02-27 03:55:00
10:15 PM,44.6,32.0,61,29.81,10.0,SW,9.2,-,N/A,,Overcast,230,2013-02-27 04:15:00
10:55 PM,42.8,32.0,66,29.81,10.0,WSW,10.4,18.4,N/A,,Overcast,240,2013-02-27 04:55:00
11:15 PM,42.8,33.8,70,29.83,10.0,West,13.8,-,N/A,,Overcast,270,2013-02-27 05:15:00
11:35 PM,42.8,33.8,70,29.83,10.0,West,9.2,-,N/A,,Overcast,280,2013-02-27 05:35:00
11:55 PM,42.8,32.0,66,29.83,10.0,West,11.5,-,N/A,,Overcast,270,2013-02-27 05:55:00